Other Public Products
Issued by NWS Grand Forks, ND

Home | Current Version | Previous Version | Graphics & Text | Print | Product List | Glossary On
Versions: 1 2 3 4 5 6 7 8 9 10 11 12 13 14 15 16 17 18 19 20 21 22 23 24 25 26 27 28 29 30 31 32 33 34 35 36 37 38 39 40 41 42 43 44 45 46 47 48 49 50
000
FPUS83 KFGF 182210
OPUFGF
PRAIRIE TO PINES WEATHER ROUNDUP
NATIONAL WEATHER SERVICE EASTERN NORTH DAKOTA/GRAND FORKS ND
400 PM CST THU DEC 18 2014

 **SATELLITE DATA USED TO AUGMENT SKY COVER AT AUTOMATED STATIONS**
 *****  WEATHER ACROSS EASTERN NORTH DAKOTA  *****

CITY           SKY/WX    TMP DP  RH WIND       PRES   REMARKS
GRAND FORKS    CLOUDY    19  14  81 S13       30.17F WCI   6
GRAND FORKS AF CLOUDY    19  17  95 S12       30.17S WCI   6
GRAND CITY NWS NOT AVBL
BUXTON         NOT AVBL
DEVILS LAKE    CLOUDY    19  12  73 S10       30.06S WCI   8
FARGO          CLOUDY    20  14  77 SE12      30.19S WCI   8
WAHPETON ARPT  CLOUDY    19  14  79 SE7       30.20S WCI  10
$$

 *****  WEATHER ACROSS CENTRAL AND WESTERN NORTH DAKOTA  *****

CITY           SKY/WX    TMP DP  RH WIND       PRES   REMARKS
JAMESTOWN      CLOUDY    22  18  85 S10       30.08S WCI  11
BISMARCK       CLOUDY    26  22  84 S7        30.03S WCI  18
MINOT          CLOUDY    23  18  81 SE7       29.99F HAZE    WCI  15
MINOT AFB      CLOUDY    22  22  98 S6        29.99S WCI  15
GARRISON         N/A     25  21  85 SW7       29.98S WCI  17
WILLISTON      CLOUDY    28  23  81 S7        29.94F WCI  21
DICKINSON      CLOUDY    32  27  81 W7        29.92S
HETTINGER      MOCLDY    32  28  85 S3        29.95S
$$

 *****  OTHER OBSERVATIONS NORTHEAST NORTH DAKOTA  *****

CITY           SKY/WX    TMP DP  RH WIND       PRES   REMARKS
WALHALLA         N/A     19  18  93 SE9       30.14S WCI   9
LANGDON        CLOUDY    19  16  86 S12       30.07S WCI   7
CAVALIER       CLOUDY    19  14  79 SE10G17   30.16S WCI   8
GRAFTON        NOT AVBL
CANDO          CLOUDY    19  18  93 S9        30.07S WCI   9
FORT TOTTEN      N/A     19  17  91 SE8       29.95S WCI   9
ROLLA          CLOUDY    18  18 100 S12       30.04S FOG     WCI   5
RUGBY          CLOUDY    19  19 100 S8        30.03F WCI   9
 ***** THE ABOVE OBSERVATIONS ARE NON NWS ARE NOT QUALITY
        CONTROLLED AND MAY MIS-REPORT RAIN FOR SNOW...
$$

 *****  OTHER OBSERVATIONS SOUTHEAST NORTH DAKOTA *****

CITY           SKY/WX    TMP DP  RH WIND       PRES   REMARKS
COOPERSTOWN    NOT AVBL
VALLEY CITY    CLOUDY    21  21 100 SE9       30.12S WCI  11
OAKES            N/A     23  23 100 S8        30.12F WCI  14
GWINNER        CLOUDY    25  23  93 MISG      30.15S
SHEYENNE NWR     N/A     20  15  81 SE7       29.95S WCI  11
BUFFALO        NOT AVBL
WYNDMERE         N/A     19  16  86 SE8         N/A  WCI   9
 ***** THE ABOVE OBSERVATIONS ARE NON NWS ARE NOT QUALITY
       CONTROLLED AND MAY MIS-REPORT RAIN FOR SNOW...
$$

  *****  WEATHER ACROSS NORTHERN MINNESOTA  *****

CITY           SKY/WX    TMP DP  RH WIND       PRES   REMARKS
FLAG ISLAND    PTCLDY    18  12  79 SE7       30.20S WCI   8
WARROAD        MOCLDY    19  14  79 SE5       30.20S WCI  13
ROSEAU         CLEAR     21  14  73 S7        30.20S WCI  13
HALLOCK        PTCLDY    19  16  86 S13       30.18S WCI   7
THF RVR FALLS  CLOUDY    19  14  79 SE9       30.18F WCI   9
HALSTAD          N/A     20  12  71 S10         N/A  WCI   9
FOSSTON        CLOUDY    18  16  93 SE6       30.18F WCI   9
BAUDETTE       CLOUDY    18  12  77 S8        30.21S WCI   8
WASKISH        CLOUDY    19  16  86 CALM      30.22S
CROOKSTON      CLOUDY    19  16  86 S12       30.20S WCI   7
$$
  *****  WEATHER ACROSS CENTRAL AND WEST MINNESOTA  *****

CITY           SKY/WX    TMP DP  RH WIND       PRES   REMARKS
BEMIDJI        CLOUDY    18  13  82 S8        30.19S WCI   7
PARK RAPIDS    CLOUDY    19  12  74 S8        30.19S WCI   9
WADENA         CLOUDY    18  12  79 NW7       30.20S WCI   8
DETROIT LAKES  MOCLDY    19  16  86 SE10      30.18S WCI   8
MOORHEAD       CLOUDY    19  18  93 SE12      30.20S WCI   7
FERGUS FALLS   CLOUDY    18  12  79 SE10      30.23S WCI   6
ELBOW LAKE     CLOUDY    18  14  84 SE10      30.19S WCI   6
MORRIS MN      CLOUDY    19  16  86 SE12      30.20S WCI   7
STAPLES        CLOUDY    18  12  79 S5        30.22S WCI  11
WHEATON        CLOUDY    18  14  86 SE13      30.22S WCI   4
$$
  *****  WEATHER ELSEWHERE ACROSS MINNESOTA  *****

CITY           SKY/WX    TMP DP  RH WIND       PRES   REMARKS
DULUTH         CLOUDY    24  17  74 E7        30.21S WCI  16
INTRNTL FALLS  CLOUDY    20  15  81 SE7       30.23S WCI  11
ELY            CLOUDY    23  19  86 CALM      30.23R
CLOQUET        CLOUDY    25  19  80 CALM      30.22S
BRAINERD       CLOUDY    19  15  84 SW5       30.24R WCI  12
HIBBING        CLOUDY    23  17  78 CALM      30.22S
ALEXANDRIA     CLOUDY    19  13  77 SE9       30.20S WCI   8
SAINT CLOUD    CLOUDY    21  14  74 CALM      30.25R
MINNEAPOLIS    CLOUDY    21  15  78 SE3       30.27R
$$

  *****  WEATHER ACROSS SOUTH DAKOTA  *****

CITY           SKY/WX    TMP DP  RH WIND       PRES   REMARKS
SIOUX FALLS    CLOUDY    26  22  84 S7        30.17S WCI  18
BROOKINGS      NOT AVBL
WATERTOWN      CLOUDY    24  20  84 S9        30.13R WCI  14
HURON          CLOUDY    26  21  81 S9        30.14S WCI  17
SISSETON         N/A     19  17  92 S9        30.17S WCI   8
ABERDEEN       CLOUDY    25  22  88 S7        30.13S FOG     WCI  17
MITCHELL       CLOUDY    28  23  81 S9        30.16S WCI  19
PIERRE         CLOUDY    29  24  82 S10       30.06R WCI  20
MOBRIDGE       CLOUDY    29  26  89 S8        30.01S WCI  21
RAPID CITY     CLEAR     43  29  57 E6        29.97R
$$

  *****  SOME WEATHER IN NEARBY STATES *****

CITY           SKY/WX    TMP DP  RH WIND       PRES   REMARKS
GLASGOW MT     CLEAR     33  25  72 CALM      29.90S
GREAT FALLS MT PTSUNNY   37  26  64 SW15      29.88F
CHEYENNE WY    PTSUNNY   39  14  36 W10       30.00R
SCOTTSBLUFF NE MOSUNNY   19  16  88 CALM      30.03R
OMAHA NE       CLOUDY    31  26  82 SE6       30.22R
DES MOINES IA  CLOUDY    30  21  69 E3        30.24R
DAVENPORT IA   MOCLDY    25  17  72 NW5       30.26R WCI  19
CHICAGO IL     CLOUDY    28  19  69 W5        30.22S WCI  23
EAU CLAIRE WI  CLOUDY    24  18  77 N3        30.25S
LA CROSSE WI   CLOUDY    26  18  71 W3        30.27R
$$

  *****  SOME NATIONAL WEATHER *****

CITY           SKY/WX    TMP DP  RH WIND       PRES   REMARKS
LA GUARDIA NY  MOCLDY    40  26  57 NW22      29.96S
RALEIGH NC     MOCLDY    47  24  40 N3        30.08F
ATLANTA GA     MOCLDY    53  30  41 W3        30.10F
NEW ORLEANS LA CLOUDY    66  55  67 SE9       30.08F
OKLAHOMA CITY  DRIZZLE   43  39  86 N8        30.12S FOG
ALBUQUERQUE NM PTSUNNY   43  27  53 N3        30.08F
SALT LAKE CITY MOSUNNY   44  30  57 VRB3      30.12S
LOS ANGELES CA PTSUNNY   60  48  64 CALM      30.14F
BOISE ID       CLOUDY    46  32  58 S12       30.07F
SEATTLE WA     CLOUDY    49  41  74 SE7       29.83F
$$

*** WEATHER ACROSS MANITOBA...SASKATCHEWAN AND ONTARIO ***
                ***ONTARIO***

CITY           SKY/WX    TMP DP  RH WIND       PRES   REMARKS
GERALDTON      CLEAR     10   5  79 W2        30.26R
THUNDER BAY    NOT AVBL
SIOUX LOOKOUT  FLURRIES  10   9  92 SE3       30.25F
TORONTO        CLOUDY    28  23  80 NW14      30.09R WCI  17
BIG TROUT LK   CLEAR      5   3  92 SW7       30.19S WCI  -7
PICKLE LAKE    PTCLDY    12   3  67 S5        30.23R WCI   4
DRYDEN         FLURRIES  16  14  93 S8        30.22S WCI   5
KENORA         MOCLDY    16  10  79 S7        30.20S WCI   6
$$
                *** MANITOBA***

CITY           SKY/WX    TMP DP  RH WIND       PRES   REMARKS
BRANDON        CLOUDY    12  10  92 E3        30.06S
DAUPHIN        CLEAR     12   7  79 CALM      30.05S
ISLAND LAKE    PTCLDY    10   7  85 S6        30.12S WCI   1
PILOT MOUND      N/A     18  16  93 S12         N/A  WCI   5
THE PAS        LGT SNOW  14  10  85 S7        29.98F WCI   4
THOMPSON       LGT SNOW   9   5  85 S8        30.01S WCI  -4
WINNIPEG       MOCLDY    18  12  79 S13       30.17F WCI   4
LYNN LAKE      LGT SNOW  12  10  92 SW3       29.89S
CHURCHILL      PTCLDY     3   1  92 SW5       30.01S WCI  -6
GILLAM         PTCLDY     5   1  85 SW7       30.05S WCI  -7
$$
                ***SASKATCHEWAN***

CITY           SKY/WX    TMP DP  RH WIND       PRES   REMARKS
ESTEVAN        FLURRIES  23  19  86 S8        29.94S WCI  14
KINDERSLEY     CLOUDY    14  10  85 NW7       29.85S WCI   4
LLOYDMINSTER   FOG       18  16  93 W5        29.84S VSB 1/2 WCI  11
PRINCE ALBERT  CLOUDY    19  19 100 VRB2      29.89S FOG
REGINA         CLOUDY    25  23  93 SE8       29.90S WCI  16



USA.gov is the U.S. government's official web portal to all federal, state and local government web resources and services.